{"data":{"norad_id":67944,"intl_designator":"2026-037N","name":"STARLINK-36892","alt_names":[],"object_type":"PAYLOAD","status":"ACTIVE","operator":null,"country":"US","launch_date":"2026-02-24","launch_site_code":"AFETR","launch_vehicle":null,"mission":null,"orbit_class":"UNKNOWN","rcs_meters":null,"size_class":null,"mass_kg":null,"dimensions":null,"purposes":["comms"],"wikipedia_slug":null,"has_3d_model":false,"image_url":null,"decayed_at":null,"tle_current":{"epoch":"2026-05-25T04:47:14.169120Z","epoch_age_seconds":51647,"freshness":"FRESH","line1":"1 67944U 26037N   26145.19946955  .00015010  00000+0  55360-3 0  9992","line2":"2 67944  42.9995 118.4771 0000925 266.2459  93.8287 15.27595284 15044","mean_motion":15.27595284,"eccentricity":9.25e-5,"inclination_deg":42.9995,"raan_deg":118.4771,"arg_perigee_deg":266.2459,"mean_anomaly_deg":93.8287,"bstar":0.0005536,"rev_number":1504,"period_min":94.26580554958,"perigee_km":482.36867514626,"apogee_km":483.63798610743,"semimajor_km":6861.1403306268,"source":"CELESTRAK","updated_at":"2026-05-25T13:38:21.768757Z"}}}